Regional Weather Roundup
Issued by NWS

Home | Current Version | Previous Version | Text Only | Print | Product List | Glossary On
Versions: 1 2 3 4 5 6 7 8 9 10 11 12 13 14 15 16 17 18 19 20 21 22 23 24 25 26 27 28 29 30 31 32 33 34 35 36 37 38 39 40 41 42 43 44 45 46 47 48 49 50
000
ASUS42 KKEY 261810
RWRKEY

FLORIDA REGIONAL WEATHER ROUNDUP FOR THE FLORIDA KEYS
NATIONAL WEATHER SERVICE KEY WEST FLORIDA
100 PM EST WED NOV 26 2014

...SOUTH FLORIDA AND THE KEYS...

CITY           SKY/WX    TMP DP  RH WIND       PRES   REMARKS
FORT MYERS     CLOUDY    65  54  67 N13       30.13F
SW REGIONAL AP CLOUDY    63  56  78 N9        30.14F
NAPLES         CLOUDY    64  56  75 N14G20    30.12F
MIAMI          CLOUDY    71  62  73 NW15G25   30.06F
WEST KENDALL   CLOUDY    70  62  76 N18       30.07F
HOMESTEAD      PTSUNNY   74  64  71 N17       30.05F
MARATHON       CLOUDY    71  65  81 NW17G28   30.08F
BOCA CHICA NAS CLOUDY    71  64  78 N25G31    30.08F
KEY WEST INTL  PTSUNNY   73  64  73 N21G31    30.08F

...INTERNATIONAL WEATHER...

CITY           SKY/WX    TMP DP  RH WIND       PRES   REMARKS
NASSAU BAHAMAS MOSUNNY   86  79  79 S15       30.05F HX  99
CANCUN MEXICO  CLOUDY    75  64  69 N7        30.13F
COZUMEL MEXICO CLOUDY    73  66  78 N16       30.11F

ADJACENT COASTAL WATERS...

STATION/POSITION TIME  SKY/WX   TEMP    WIND        PRES    WAVE
                                AIR SEA DIR/SP/G            HT/PER
                 (UTC)          (F)     (DEG/KT/KT) (MB)    (FT/S)
PULASKI SHOAL LI 1700            72     360/ 19/ 20 1020.1R
SAND KEY         1736            71     350/ 25/ 29 1018.7F
SOMBRERO KEY     1800            69     340/ 26/ 28 1018.9F
LONG KEY         1655            71 79  340/ 20/ 23 1019.4F
MOLASSES REEF    1800            73 78  330/ 19/ 22 1017.1F
FOWEY ROCKS      1800            72 79  320/ 19/ 21 1017.7F
Buoy 42080       NOT AVBL

$$


USA.gov is the U.S. government's official web portal to all federal, state and local government web resources and services.